• In Hungary
  • List of Countries
  • For 7 days
  • Water Temperature
  • Satellite Maps
  • Weather Map
  • News
  • Weather Widgets
  • user-avatar
    Login

    Hourly Weather Mozhayka

    Today, 20 August, Monday

    Time Temperature Precipitation Wind Pressure Humidity
    00:00 +18°C° 0 mm 1 mps 750 mmHg 58%
    01:00 +16°C° 0 mm 1 mps 750 mmHg 60%
    02:00 +16°C° 0 mm 1 mps 750 mmHg 61%
    03:00 +15°C° 0 mm 2 mps 750 mmHg 62%
    04:00 +15°C° 0 mm 2 mps 750 mmHg 64%
    05:00 +15°C° 0 mm 2 mps 750 mmHg 65%
    06:00 +15°C° 0 mm 2 mps 750 mmHg 66%
    07:00 +18°C° 0 mm 2 mps 750 mmHg 61%
    08:00 +20°C° 0 mm 2 mps 750 mmHg 56%
    09:00 +22°C° 0 mm 3 mps 750 mmHg 51%
    10:00 +24°C° 0 mm 3 mps 750 mmHg 47%
    11:00 +26°C° 0 mm 3 mps 750 mmHg 43%
    12:00 +27°C° 0 mm 4 mps 749 mmHg 40%
    13:00 +27°C° 0 mm 4 mps 749 mmHg 39%
    14:00 +28°C° 0 mm 4 mps 749 mmHg 38%
    15:00 +28°C° 0 mm 4 mps 749 mmHg 37%
    16:00 +27°C° 0 mm 3 mps 749 mmHg 41%
    17:00 +27°C° 0 mm 3 mps 748 mmHg 45%
    18:00 +26°C° 0 mm 2 mps 748 mmHg 48%
    19:00 +24°C° 0 mm 2 mps 748 mmHg 51%
    20:00 +23°C° 0 mm 2 mps 748 mmHg 53%
    21:00 +20°C° 0 mm 2 mps 748 mmHg 55%
    22:00 +19°C° 0 mm 2 mps 748 mmHg 55%
    23:00 +19°C° 0 mm 3 mps 748 mmHg 56%

    Tomorrow, 21 August, Tuesday

    Time Temperature Precipitation Wind Pressure Humidity
    00:00 +18°C° 0 mm 3 mps 748 mmHg 56%
    01:00 +18°C° 0 mm 3 mps 747 mmHg 56%
    02:00 +17°C° 0 mm 3 mps 747 mmHg 56%
    03:00 +17°C° 0 mm 3 mps 747 mmHg 57%
    04:00 +17°C° 0 mm 3 mps 747 mmHg 58%
    05:00 +16°C° 0 mm 3 mps 747 mmHg 59%
    06:00 +16°C° 0 mm 3 mps 747 mmHg 60%
    07:00 +18°C° 0 mm 3 mps 747 mmHg 55%
    08:00 +20°C° 0 mm 4 mps 747 mmHg 50%
    09:00 +22°C° 0 mm 4 mps 747 mmHg 46%
    10:00 +25°C° 0 mm 5 mps 746 mmHg 42%
    11:00 +27°C° 0 mm 5 mps 746 mmHg 39%
    12:00 +28°C° 0 mm 6 mps 746 mmHg 35%
    13:00 +29°C° 0 mm 6 mps 746 mmHg 34%
    14:00 +29°C° 0 mm 6 mps 745 mmHg 34%
    15:00 +29°C° 0 mm 6 mps 745 mmHg 33%
    16:00 +28°C° 0 mm 6 mps 744 mmHg 37%
    17:00 +27°C° 0 mm 5 mps 744 mmHg 40%
    18:00 +27°C° 0 mm 4 mps 743 mmHg 44%
    19:00 +25°C° 0 mm 4 mps 743 mmHg 44%
    20:00 +23°C° 0 mm 4 mps 743 mmHg 45%
    21:00 +22°C° 0 mm 4 mps 743 mmHg 45%
    22:00 +21°C° 0.1 mm 4 mps 743 mmHg 47%
    23:00 +21°C° 0.1 mm 4 mps 743 mmHg 48%

    Day after tomorrow, 22 August, Wednesday

    Time Temperature Precipitation Wind Pressure Humidity
    00:00 +21°C° 0.1 mm 4 mps 743 mmHg 50%
    01:00 +20°C° 0.4 mm 4 mps 743 mmHg 58%
    02:00 +19°C° 0.4 mm 4 mps 743 mmHg 66%
    03:00 +19°C° 0.4 mm 3 mps 743 mmHg 73%
    04:00 +18°C° 0.4 mm 3 mps 743 mmHg 78%
    05:00 +17°C° 0.4 mm 3 mps 743 mmHg 82%
    06:00 +17°C° 0.4 mm 4 mps 743 mmHg 86%
    07:00 +17°C° 0 mm 4 mps 744 mmHg 77%
    08:00 +17°C° 0 mm 5 mps 744 mmHg 69%
    09:00 +19°C° 0 mm 5 mps 745 mmHg 60%
    10:00 +20°C° 0 mm 5 mps 745 mmHg 56%
    11:00 +21°C° 0 mm 5 mps 745 mmHg 51%
    12:00 +21°C° 0 mm 6 mps 746 mmHg 46%
    13:00 +22°C° 0 mm 6 mps 746 mmHg 44%
    14:00 +22°C° 0 mm 6 mps 746 mmHg 42%
    15:00 +22°C° 0 mm 6 mps 746 mmHg 40%
    16:00 +22°C° 0 mm 5 mps 746 mmHg 44%
    17:00 +21°C° 0 mm 4 mps 746 mmHg 47%
    18:00 +20°C° 0 mm 3 mps 747 mmHg 51%
    19:00 +19°C° 0 mm 3 mps 747 mmHg 54%
    20:00 +17°C° 0 mm 3 mps 747 mmHg 58%
    21:00 +16°C° 0 mm 3 mps 748 mmHg 62%
    22:00 +14°C° 0 mm 3 mps 748 mmHg 64%
    23:00 +13°C° 0 mm 3 mps 748 mmHg 66%

    23 August, Thursday

    Time Temperature Precipitation Wind Pressure Humidity
    00:00 +13°C° 0 mm 3 mps 749 mmHg 68%
    01:00 +12°C° 0 mm 3 mps 749 mmHg 69%
    02:00 +12°C° 0 mm 3 mps 749 mmHg 70%
    03:00 +11°C° 0 mm 3 mps 750 mmHg 71%
    04:00 +11°C° 0 mm 3 mps 750 mmHg 72%
    05:00 +12°C° 0 mm 2 mps 750 mmHg 73%
    06:00 +12°C° 0 mm 2 mps 751 mmHg 73%
    07:00 +13°C° 0 mm 3 mps 751 mmHg 66%
    08:00 +16°C° 0 mm 3 mps 751 mmHg 59%
    09:00 +18°C° 0 mm 3 mps 752 mmHg 52%
    10:00 +18°C° 0 mm 3 mps 752 mmHg 48%
    11:00 +19°C° 0 mm 3 mps 752 mmHg 44%
    12:00 +20°C° 0 mm 3 mps 752 mmHg 40%
    13:00 +21°C° 0 mm 3 mps 752 mmHg 39%
    14:00 +21°C° 0 mm 3 mps 752 mmHg 38%
    15:00 +21°C° 0 mm 3 mps 751 mmHg 38%
    16:00 +21°C° 0 mm 2 mps 751 mmHg 41%
    17:00 +20°C° 0 mm 2 mps 751 mmHg 44%
    18:00 +20°C° 0 mm 2 mps 751 mmHg 48%
    19:00 +18°C° 0 mm 2 mps 752 mmHg 51%
    20:00 +16°C° 0 mm 1 mps 752 mmHg 54%
    21:00 +15°C° 0 mm 1 mps 752 mmHg 58%
    22:00 +14°C° 0 mm 1 mps 752 mmHg 59%
    23:00 +14°C° 0 mm 1 mps 752 mmHg 61%

    24 August, Friday

    Time Temperature Precipitation Wind Pressure Humidity
    00:00 +13°C° 0 mm 1 mps 752 mmHg 63%
    01:00 +12°C° 0 mm 0 mps 752 mmHg 64%
    02:00 +11°C° 0 mm 0 mps 752 mmHg 65%
    03:00 +11°C° 0 mm 0 mps 752 mmHg 66%
    04:00 +11°C° 0 mm 0 mps 752 mmHg 67%
    05:00 +11°C° 0 mm 0 mps 752 mmHg 68%
    06:00 +11°C° 0 mm 0 mps 752 mmHg 68%
    07:00 +13°C° 0 mm 0 mps 752 mmHg 62%
    08:00 +15°C° 0 mm 0 mps 752 mmHg 56%
    09:00 +18°C° 0 mm 0 mps 752 mmHg 49%
    10:00 +19°C° 0 mm 0 mps 752 mmHg 46%
    11:00 +20°C° 0 mm 0 mps 752 mmHg 42%
    12:00 +21°C° 0 mm 0 mps 752 mmHg 39%
    13:00 +24°C° 0 mm 1 mps 752 mmHg 37%
    14:00 +24°C° 0 mm 1 mps 751 mmHg 36%
    15:00 +24°C° 0 mm 1 mps 751 mmHg 35%
    16:00 +24°C° 0 mm 1 mps 751 mmHg 38%
    17:00 +23°C° 0 mm 1 mps 751 mmHg 41%
    18:00 +23°C° 0 mm 1 mps 750 mmHg 44%
    19:00 +21°C° 0 mm 1 mps 750 mmHg 47%
    20:00 +19°C° 0 mm 1 mps 750 mmHg 49%
    21:00 +18°C° 0 mm 1 mps 750 mmHg 52%
    22:00 +16°C° 0 mm 1 mps 750 mmHg 53%
    23:00 +16°C° 0 mm 1 mps 750 mmHg 55%

    25 August, Saturday

    Time Temperature Precipitation Wind Pressure Humidity
    00:00 +15°C° 0 mm 1 mps 750 mmHg 57%
    01:00 +15°C° 0 mm 1 mps 750 mmHg 59%
    02:00 +14°C° 0 mm 1 mps 750 mmHg 60%
    03:00 +13°C° 0 mm 0 mps 750 mmHg 61%
    04:00 +14°C° 0 mm 1 mps 750 mmHg 62%
    05:00 +14°C° 0 mm 1 mps 750 mmHg 64%
    06:00 +14°C° 0 mm 1 mps 750 mmHg 65%
    07:00 +16°C° 0 mm 1 mps 751 mmHg 59%
    08:00 +19°C° 0 mm 1 mps 751 mmHg 54%
    09:00 +21°C° 0 mm 1 mps 751 mmHg 48%
    10:00 +22°C° 0 mm 1 mps 751 mmHg 45%
    11:00 +23°C° 0 mm 1 mps 751 mmHg 41%
    12:00 +24°C° 0 mm 1 mps 750 mmHg 38%
    13:00 +25°C° 0 mm 2 mps 750 mmHg 36%
    14:00 +25°C° 0 mm 2 mps 750 mmHg 35%
    15:00 +26°C° 0 mm 2 mps 750 mmHg 34%
    16:00 +25°C° 0 mm 2 mps 749 mmHg 37%
    17:00 +25°C° 0 mm 1 mps 749 mmHg 41%
    18:00 +24°C° 0 mm 1 mps 749 mmHg 44%
    19:00 +22°C° 0 mm 1 mps 749 mmHg 47%
    20:00 +21°C° 0 mm 1 mps 749 mmHg 50%
    21:00 +19°C° 0 mm 1 mps 749 mmHg 53%
    22:00 +18°C° 0 mm 1 mps 749 mmHg 55%
    23:00 +18°C° 0 mm 1 mps 749 mmHg 57%
    Show more